[[{"header":{"parameterUnit":"m.s-1","parameterCategory":1,"la1":30.2991,"la2":30.254,"lo1":-89.0895,"lo2":-89.0444,"dy":0.0017,"dx":0.0017,"nx":28,"ny":28,"refTime":"2024-08-04T03:00:00:Z","depth":0,"parameterNumber":2,"parameterNumberName":"U-component_of_WINDS"},"data":[0,0,0,0,0,0,0,0,0,0,0,0,0,0,0,0,0,0,0,0,0,0,0,0,0,0,0,0,0,0,0,0,0,0,0,0,0,0,0,0,0,0,0,0,0,0,0,0,0,0,0,0,0,0,0,0,0,0,-0.6182,-0.6183,0,-0.6271,-0.6272,-0.6273,-0.6261,-0.6259,-0.6257,-0.6256,-0.6352,-0.6356,-0.636,0,0,0,0,0,0,0,0,0,0,0,0,0,-0.6003,-0.6007,-0.6182,-0.6183,-0.6184,-0.6271,-0.6272,-0.6274,-0.6261,-0.6259,-0.6257,-0.6255,-0.6351,-0.6355,-0.636,0,0,0,0,0,0,0,0,0,0,0,0,0,-0.6086,-0.6008,-0.6181,-0.6188,-0.6189,-0.6271,-0.6272,-0.6274,-0.6261,-0.6259,-0.6257,-0.6254,-0.6349,-0.6355,-0.6361,-0.6443,0,0,-0.6379,-0.6381,0,0,0,0,0,0,0,0,-0.6081,-0.6092,-0.6186,-0.6188,-0.6189,-0.6252,-0.6245,-0.6331,-0.6262,-0.6234,-0.6256,-0.6253,-0.6321,-0.6329,-0.6351,-0.6447,-0.6451,-0.6379,-0.6383,-0.6385,-0.6387,0,0,0,0,0,0,0,-0.6075,-0.6088,-0.6217,-0.6187,-0.6189,-0.6188,-0.6197,-0.6261,-0.6289,-0.6236,-0.6236,-0.6246,-0.6321,-0.6345,-0.6353,-0.6453,-0.6379,-0.6384,-0.6388,-0.639,-0.6623,-0.6626,0,0,0,0,0,0,-0.6067,-0.6084,-0.6214,-0.622,-0.6128,-0.6193,-0.6203,-0.6234,-0.6288,-0.6294,-0.6248,-0.6245,-0.6336,-0.6346,-0.6356,-0.6458,-0.6385,-0.6391,-0.6394,-0.6621,-0.6624,-0.6627,0,0,0,0,0,0,-0.6064,-0.6079,-0.6211,-0.6152,-0.6168,-0.6198,-0.6234,-0.6237,-0.6261,-0.6297,-0.6303,-0.6267,-0.6335,-0.6348,-0.6422,-0.6461,-0.6394,-0.6399,-0.6617,-0.6621,-0.6625,-0.666,0,0,0,0,0,0,-0.6058,-0.6078,-0.6108,-0.6152,-0.6171,-0.6273,-0.6236,-0.6241,-0.6271,-0.6268,-0.6316,-0.6322,-0.6334,-0.6413,-0.6427,-0.6468,-0.6404,-0.6614,-0.6619,-0.6624,-0.6656,-0.6665,-0.6673,0,0,0,0,0,-0.6052,-0.6115,-0.611,-0.6126,-0.621,-0.6276,-0.6287,-0.6298,-0.6274,-0.6306,-0.6329,-0.6321,-0.6454,-0.642,-0.6437,-0.648,-0.6612,-0.6618,-0.6623,-0.6652,-0.6663,-0.6673,0,0,0,0,0,0,-0.6076,-0.6121,-0.6116,-0.6195,-0.6231,-0.6273,-0.6314,-0.6309,-0.6354,-0.635,-0.6363,-0.6374,-0.6449,-0.6471,-0.6433,-0.6563,-0.653,-0.6539,-0.6546,-0.6557,-0.6565,-0.6559,-0.6409,0,0,0,0,0,-0.609,-0.6139,-0.6176,-0.6242,-0.626,-0.6284,-0.6313,-0.6318,-0.6357,-0.6373,-0.6402,-0.6441,-0.6492,-0.6525,-0.6574,-0.6658,-0.667,-0.6696,-0.6704,-0.6711,-0.672,-0.6769,-0.6781,-0.6646,-0.6646,-0.6646,0,0,-0.6121,-0.6151,-0.6181,-0.6247,-0.6276,-0.6328,-0.6297,-0.6352,-0.6391,-0.6382,-0.6453,-0.6476,-0.652,-0.66,-0.6637,-0.6622,-0.676,-0.6719,-0.6724,-0.6729,-0.6776,-0.6789,-0.68,-0.665,-0.6649,-0.6648,0,0,-0.6203,-0.623,-0.6289,-0.6319,-0.6362,-0.6378,-0.6392,-0.6435,-0.6449,-0.652,-0.6515,-0.6562,-0.6648,-0.6681,-0.6709,-0.6804,-0.6799,-0.6819,-0.6865,-0.6912,-0.6922,-0.6932,-0.6968,-0.6981,-0.6827,-0.6827,-0.6828,0,-0.6236,-0.6312,-0.632,-0.6376,-0.6407,-0.6399,-0.646,-0.6488,-0.6547,-0.6568,-0.6549,-0.6659,-0.6688,-0.6777,-0.68,-0.6822,-0.684,-0.6815,-0.692,-0.693,-0.6939,-0.6974,-0.6987,-0.683,-0.683,-0.6829,-0.6829,0,-0.6351,-0.6404,-0.6447,-0.6502,-0.6537,-0.6595,-0.6613,-0.6648,-0.665,-0.6668,-0.6742,-0.6776,-0.6833,-0.6854,-0.6857,-0.6943,-0.6933,-0.6916,-0.6884,-0.6954,-0.6987,-0.7,-0.6833,-0.6832,-0.6832,-0.6831,0,0,-0.6453,-0.6512,-0.6528,-0.6553,-0.6601,-0.6643,-0.6701,-0.6755,-0.6785,-0.6825,-0.6876,-0.695,-0.6936,-0.6967,-0.6974,-0.7015,-0.7091,-0.6994,-0.6996,-0.7013,-0.7191,-0.7204,-0.722,-0.7086,-0.7089,-0.7091,-0.7188,0,-0.6542,-0.6644,-0.6653,-0.6746,-0.6796,-0.6789,-0.684,-0.6876,-0.6894,-0.694,-0.696,-0.7013,-0.6989,-0.7009,-0.7049,-0.7073,-0.7127,-0.7066,-0.7136,-0.7139,-0.7128,-0.7236,-0.7251,-0.7341,-0.7201,-0.7203,-0.7204,0,-0.6659,-0.6702,-0.6799,-0.6841,-0.6863,-0.6908,-0.6959,-0.7003,-0.7044,-0.7054,-0.7089,-0.7091,-0.7153,-0.7116,-0.7202,-0.7161,-0.719,-0.7206,-0.721,-0.7219,-0.7178,-0.7251,-0.7369,-0.7384,-0.7224,-0.7223,-0.7221,0,-0.6727,-0.6808,-0.6878,-0.69,-0.6949,-0.6982,-0.7005,-0.7043,-0.7076,-0.712,-0.7142,-0.7193,-0.7222,-0.7263,-0.7279,-0.725,-0.7366,-0.7329,-0.7378,-0.7378,-0.7405,-0.7403,-0.7532,-0.7419,-0.7419,-0.7419,-0.7419,0,-0.6826,-0.6887,-0.6909,-0.6952,-0.702,-0.703,-0.7097,-0.7119,-0.7153,-0.7201,-0.7198,-0.7244,-0.726,-0.7309,-0.7322,-0.7393,-0.7406,-0.7417,-0.7421,-0.7419,-0.7418,-0.744,-0.7436,-0.7422,-0.7422,-0.7421,-0.742,0,-0.6914,-0.6931,-0.7006,-0.7047,-0.7059,-0.7107,-0.7143,-0.7185,-0.7202,-0.7263,-0.7278,-0.7305,-0.7363,-0.7382,-0.7451,-0.746,-0.7544,-0.754,-0.753,-0.7531,-0.758,-0.7576,-0.773,-0.7751,-0.7622,-0.7623,-0.7624,0,-0.6977,-0.7024,-0.7069,-0.7101,-0.7124,-0.7175,-0.7208,-0.722,-0.7254,-0.7305,-0.7341,-0.7398,-0.7444,-0.7536,-0.7563,-0.7617,-0.7616,-0.7666,-0.7624,-0.7622,-0.762,-0.7618,-0.7624,-0.7675,-0.7676,-0.7677,-0.7678,0,-0.7089,-0.7095,-0.7142,-0.7192,-0.7231,-0.7271,-0.731,-0.7336,-0.7354,-0.7393,-0.7451,-0.7487,-0.7558,-0.7615,-0.7669,-0.7694,-0.7691,-0.7691,-0.7705,-0.7706,-0.7699,-0.7706,-0.7554,-0.7688,-0.7687,-0.7686,-0.7686,-0.7685,-0.7169,-0.721,-0.7249,-0.7301,-0.7331,-0.7368,-0.741,-0.7432,-0.748,-0.7538,-0.7542,-0.7606,-0.7647,-0.7719,-0.7747,-0.7798,-0.7784,-0.7804,-0.781,-0.7816,-0.7821,-0.7688,-0.7808,-0.7807,-0.7807,-0.7807,-0.7807,0,-0.7282,-0.7307,-0.7355,-0.7409,-0.7451,-0.7441,-0.7484,-0.752,-0.7575,-0.7613,-0.7658,-0.7726,-0.7781,-0.7812,-0.7868,-0.7903,-0.7903,-0.7918,-0.7916,-0.7923,-0.7829,-0.7812,-0.7917,-0.7917,-0.7917,-0.7917,-0.7917,-0.7917,-0.7347,-0.7417,-0.7428,-0.7514,-0.7538,-0.7599,-0.7625,-0.7659,-0.769,-0.7765,-0.781,-0.7829,-0.7866,-0.7924,-0.7975,-0.7983,-0.8005,-0.8021,-0.8028,-0.794,-0.7929,-0.7918,-0.7903,-0.8025,-0.8025,-0.8118,-0.8119,-0.812]},{"header":{"parameterUnit":"m.s-1","parameterCategory":1,"la1":30.2991,"la2":30.254,"lo1":-89.0895,"lo2":-89.0444,"dy":0.0017,"dx":0.0017,"nx":28,"ny":28,"refTime":"2024-08-04T03:00:00:Z","depth":0,"parameterNumber":3,"parameterNumberName":"V-component_of_WINDS"},"data":[0,0,0,0,0,0,0,0,0,0,0,0,0,0,0,0,0,0,0,0,0,0,0,0,0,0,0,0,0,0,0,0,0,0,0,0,0,0,0,0,0,0,0,0,0,0,0,0,0,0,0,0,0,0,0,0,0,0,-4.7728,-4.7729,0,-4.7837,-4.7838,-4.7839,-4.7786,-4.7783,-4.778,-4.7777,-4.7886,-4.7891,-4.7896,0,0,0,0,0,0,0,0,0,0,0,0,0,-4.747,-4.7475,-4.7728,-4.7729,-4.7731,-4.7837,-4.7838,-4.784,-4.7786,-4.7783,-4.7779,-4.7776,-4.7884,-4.789,-4.7897,0,0,0,0,0,0,0,0,0,0,0,0,0,-4.7581,-4.7477,-4.7728,-4.7717,-4.7717,-4.7836,-4.7838,-4.784,-4.7787,-4.7783,-4.7778,-4.7774,-4.7882,-4.789,-4.7898,-4.8034,0,0,-4.7923,-4.7927,0,0,0,0,0,0,0,0,-4.7575,-4.7591,-4.7717,-4.7718,-4.7718,-4.7793,-4.7787,-4.7905,-4.7788,-4.776,-4.7777,-4.7772,-4.7858,-4.7868,-4.7898,-4.8039,-4.8043,-4.7924,-4.7929,-4.7932,-4.7935,0,0,0,0,0,0,0,-4.7567,-4.7586,-4.7771,-4.7719,-4.772,-4.7705,-4.7717,-4.7809,-4.7831,-4.7762,-4.7759,-4.7772,-4.7858,-4.789,-4.79,-4.8045,-4.7924,-4.7931,-4.7936,-4.7939,-4.8303,-4.8308,0,0,0,0,0,0,-4.7561,-4.758,-4.7767,-4.7774,-4.7635,-4.7714,-4.7726,-4.7773,-4.783,-4.7835,-4.7776,-4.777,-4.7878,-4.789,-4.7903,-4.8067,-4.7932,-4.794,-4.7945,-4.8298,-4.8304,-4.8309,0,0,0,0,0,0,-4.7555,-4.7578,-4.7763,-4.7676,-4.7699,-4.7723,-4.7776,-4.7778,-4.781,-4.7841,-4.7844,-4.7805,-4.7875,-4.7892,-4.8002,-4.807,-4.7944,-4.7951,-4.8293,-4.83,-4.8307,-4.8394,0,0,0,0,0,0,-4.7548,-4.7576,-4.7629,-4.7678,-4.7703,-4.7861,-4.778,-4.7783,-4.7825,-4.7818,-4.7869,-4.7873,-4.7873,-4.799,-4.801,-4.8079,-4.7958,-4.8287,-4.8296,-4.8304,-4.8385,-4.8403,-4.8419,0,0,0,0,0,-4.7539,-4.7648,-4.7632,-4.7655,-4.777,-4.7865,-4.788,-4.7878,-4.7831,-4.7883,-4.7903,-4.7872,-4.8059,-4.8002,-4.8024,-4.8096,-4.8283,-4.8294,-4.8304,-4.8378,-4.84,-4.8418,0,0,0,0,0,0,-4.7605,-4.7654,-4.7637,-4.7765,-4.7811,-4.7856,-4.7922,-4.7901,-4.7961,-4.7952,-4.7946,-4.7958,-4.8072,-4.8095,-4.803,-4.8231,-4.8163,-4.8179,-4.8212,-4.8233,-4.825,-4.8242,-4.7965,0,0,0,0,0,-4.7635,-4.7709,-4.7747,-4.7857,-4.7881,-4.7898,-4.7939,-4.7934,-4.7982,-4.8001,-4.8028,-4.8075,-4.8144,-4.819,-4.8255,-4.8388,-4.8399,-4.8449,-4.8465,-4.8479,-4.8493,-4.8566,-4.8589,-4.8344,-4.8344,-4.8344,0,0,-4.7696,-4.7732,-4.7779,-4.7871,-4.7907,-4.7983,-4.7915,-4.7998,-4.8055,-4.8013,-4.8119,-4.8141,-4.8192,-4.8315,-4.837,-4.8337,-4.8563,-4.8493,-4.8503,-4.851,-4.8579,-4.8602,-4.8623,-4.8351,-4.835,-4.8349,0,0,-4.7848,-4.7883,-4.7978,-4.8016,-4.8071,-4.8081,-4.8104,-4.8152,-4.8166,-4.8273,-4.8243,-4.8309,-4.8429,-4.8467,-4.8502,-4.8669,-4.8643,-4.869,-4.8778,-4.8849,-4.8868,-4.8885,-4.8946,-4.8967,-4.8704,-4.8704,-4.8704,0,-4.7918,-4.8033,-4.803,-4.8117,-4.8158,-4.8125,-4.8221,-4.8257,-4.833,-4.8359,-4.8321,-4.8471,-4.8503,-4.8635,-4.8676,-4.8705,-4.8731,-4.8685,-4.8866,-4.8883,-4.8899,-4.8956,-4.8979,-4.8709,-4.8709,-4.8708,-4.8708,0,-4.8116,-4.8196,-4.8266,-4.834,-4.8389,-4.848,-4.849,-4.854,-4.853,-4.8545,-4.8654,-4.8691,-4.8764,-4.8795,-4.8786,-4.8925,-4.8903,-4.8866,-4.8798,-4.8928,-4.8982,-4.9004,-4.8717,-4.8715,-4.8714,-4.8712,0,0,-4.8312,-4.8384,-4.8409,-4.8443,-4.8501,-4.8563,-4.8652,-4.8725,-4.8768,-4.8819,-4.8894,-4.8996,-4.8962,-4.9002,-4.8997,-4.9059,-4.919,-4.9014,-4.9015,-4.9046,-4.9347,-4.9376,-4.9401,-4.9173,-4.9177,-4.9181,-4.9343,0,-4.8469,-4.8627,-4.8627,-4.8772,-4.8847,-4.8817,-4.8894,-4.8938,-4.8954,-4.9019,-4.9035,-4.9108,-4.9057,-4.9081,-4.9142,-4.9162,-4.9251,-4.915,-4.9242,-4.9246,-4.9232,-4.9429,-4.946,-4.9612,-4.9364,-4.9368,-4.937,0,-4.8673,-4.8733,-4.8886,-4.8935,-4.8966,-4.9036,-4.9103,-4.9165,-4.9214,-4.9221,-4.9266,-4.9252,-4.9342,-4.9272,-4.9396,-4.9327,-4.9365,-4.9381,-4.9386,-4.9396,-4.9316,-4.9445,-4.966,-4.9683,-4.9403,-4.9401,-4.9398,0,-4.8802,-4.892,-4.9028,-4.9057,-4.9116,-4.9166,-4.9193,-4.9238,-4.9282,-4.934,-4.9369,-4.9436,-4.9473,-4.9525,-4.9529,-4.9477,-4.9655,-4.9584,-4.9663,-4.9663,-4.9702,-4.97,-4.9927,-4.9725,-4.9725,-4.9725,-4.9724,0,-4.8977,-4.9072,-4.9087,-4.9153,-4.9259,-4.9258,-4.9362,-4.9384,-4.9425,-4.9494,-4.9471,-4.9536,-4.9537,-4.9604,-4.9608,-4.9711,-4.9727,-4.9735,-4.9735,-4.9738,-4.9737,-4.9763,-4.9753,-4.9731,-4.9729,-4.9728,-4.9727,0,-4.9139,-4.9153,-4.9268,-4.9315,-4.9329,-4.9405,-4.9445,-4.9508,-4.9521,-4.961,-4.963,-4.9652,-4.9729,-4.9738,-4.9828,-4.983,-4.9954,-4.9943,-4.9939,-4.9937,-5.0016,-5.0009,-5.0269,-5.0303,-5.0078,-5.008,-5.0082,0,-4.925,-4.9323,-4.9379,-4.9424,-4.9454,-4.9528,-4.9573,-4.9574,-4.9622,-4.9684,-4.974,-4.9815,-4.9876,-5.0,-5.0023,-5.0092,-5.0082,-5.0169,-5.0092,-5.0093,-5.0085,-5.0081,-5.0088,-5.0183,-5.0186,-5.0188,-5.019,0,-4.9447,-4.945,-4.9517,-4.9587,-4.9642,-4.9696,-4.9747,-4.9786,-4.9793,-4.9848,-4.9928,-4.9975,-5.0067,-5.0143,-5.0211,-5.0237,-5.0215,-5.0213,-5.0235,-5.0239,-5.0235,-5.0239,-4.998,-5.0208,-5.0206,-5.0204,-5.0203,-5.0203,-4.9588,-4.9651,-4.9701,-4.9776,-4.9815,-4.9864,-4.9926,-4.9948,-5.0015,-5.0091,-5.0087,-5.0175,-5.0223,-5.0312,-5.0343,-5.0412,-5.0383,-5.0414,-5.0423,-5.0431,-5.0439,-5.0223,-5.0424,-5.0423,-5.0423,-5.0422,-5.0422,0,-4.9784,-4.9814,-4.9884,-4.9957,-5.0016,-4.9991,-5.0047,-5.0098,-5.0176,-5.0223,-5.0283,-5.0375,-5.0448,-5.0477,-5.0548,-5.0598,-5.0589,-5.0616,-5.0613,-5.062,-5.046,-5.0435,-5.0622,-5.0622,-5.0622,-5.0622,-5.0622,-5.0622,-4.9893,-5.0,-5.0009,-5.0135,-5.0165,-5.0252,-5.0286,-5.0331,-5.0368,-5.0472,-5.0533,-5.0552,-5.0592,-5.0666,-5.0732,-5.0738,-5.0766,-5.0798,-5.08,-5.0651,-5.0631,-5.0612,-5.0587,-5.0804,-5.0804,-5.0954,-5.0955,-5.0956]}]]